Lake Charles, LA

9:47 PM CDT on September 29, 2016 (GMT -0500)
Lake Charles Regional

Weather History for KLCH - August, 2014

Change the Weather History Date:

Thursday, August 7, 2014

  Actual Average Record
Temperature  
Mean Temperature 83 °F 83 °F  
Max Temperature 91 °F 92 °F 100 °F (1929)
Min Temperature 74 °F 75 °F 65 °F (1912)
Degree Days  
Heating Degree Days 0 0  
Month to date heating degree days 0 0  
Since 1 June heating degree days 0 0  
Since 1 July heating degree days 0 0  
Cooling Degree Days 18 18  
Month to date cooling degree days 121 126  
Year to date cooling degree days 1572 1697  
Since 1 June cooling degree days 1133 1159  
Growing Degree Days 33 (Base 50)    
Moisture  
Dew Point 76 °F    
Average Humidity 81    
Maximum Humidity 97    
Minimum Humidity 64    
Precipitation  
Precipitation 0.03 in 0.17 in 6.77 in (1940)
Month to date precipitation 3.45 1.18  
Year to date precipitation 39.78 34.54  
Snow  
Snow 0.00 in 0.00 in 0.00 in ()
Month to date snowfall 0.0 0.0  
Since 1 June snowfall 0.0 0.0  
Since 1 July snowfall 0.0 0.0  
Snow Depth 0.00 in    
Sea Level Pressure  
Sea Level Pressure 29.99 in    
Wind  
Wind Speed 4 mph (South)    
Max Wind Speed 18 mph    
Max Gust Speed 25 mph    
Visibility 10 miles    
Events Rain , Thunderstorm    
T = Trace of Precipitation, MM = Missing Value Source: NWS Daily Summary

Daily Weather History Graph

Daily Weather History Graph

Search for Another Location

Airport or City:

Trip Planner

Search our weather history database for the weather conditions in past years. The results will help you decide how hot, cold, wet, or windy it might be!

Date:

Astronomy

Aug. 07, 2014 Rise Set
Actual Time 6:35 AM CDT 8:01 PM CDT
Civil Twilight 6:09 AM CDT 8:27 PM CDT
Nautical Twilight 5:39 AM CDT 8:57 PM CDT
Astronomical Twilight 5:07 AM CDT 9:29 PM CDT
Moon 5:15 PM CDT (8/7) 3:09 AM CDT (8/7)
Length of Visible Light 14h 17m
Length of Day
13h 26m
Waxing Gibbous, 87% of the Moon is Illuminated
Aug 7
Waxing Gibbous
Aug 10
Full
Aug 17
Last Quarter
Aug 25
New
Sep 2
First Quarter

Hourly Weather History & Observations

Time (CDT) Temp. Heat Index Dew Point Humidity Pressure Visibility Wind Dir Wind Speed Gust Speed Precip Events Conditions
12:53 AM 78.1 °F - 75.9 °F 93% 30.01 in 10.0 mi SE 3.5 mph - N/A   Clear
1:53 AM 78.1 °F - 75.9 °F 93% 30.00 in 10.0 mi Calm Calm - N/A   Clear
2:53 AM 78.1 °F - 75.9 °F 93% 30.00 in 10.0 mi SSE 3.5 mph - N/A   Clear
3:53 AM 78.1 °F - 75.9 °F 93% 29.99 in 10.0 mi Calm Calm - N/A   Clear
4:53 AM 77.0 °F - 75.0 °F 94% 29.99 in 10.0 mi Calm Calm - N/A   Clear
5:53 AM 78.1 °F - 75.9 °F 93% 30.01 in 10.0 mi Calm Calm - N/A   Scattered Clouds
6:53 AM 79.0 °F - 77.0 °F 94% 30.01 in 10.0 mi Calm Calm - N/A   Scattered Clouds
7:53 AM 81.0 °F 88.6 °F 78.1 °F 91% 30.03 in 10.0 mi Calm Calm - 0.00 in   Partly Cloudy
8:53 AM 77.0 °F - 72.0 °F 84% 30.04 in 6.0 mi SSE 4.6 mph - 0.00 in Rain Rain
9:21 AM 84.0 °F 91.2 °F 73.9 °F 72% 30.01 in 10.0 mi Variable 3.5 mph - 0.00 in Thunderstorm Partly Cloudy
9:46 AM 82.0 °F 88.6 °F 75.0 °F 79% 30.04 in 10.0 mi South 15.0 mph 20.7 mph 0.00 in Thunderstorm Thunderstorm
9:53 AM 77.0 °F - 71.1 °F 82% 30.06 in 5.0 mi South 12.7 mph 25.3 mph 0.00 in Rain , Thunderstorm Light Thunderstorms and Rain
10:18 AM 75.0 °F - 71.1 °F 87% 30.02 in 10.0 mi SSW 5.8 mph - 0.03 in   Mostly Cloudy
10:53 AM 78.1 °F - 73.0 °F 84% 30.04 in 10.0 mi Calm Calm - 0.03 in   Clear
11:53 AM 82.0 °F 88.6 °F 75.0 °F 79% 30.04 in 10.0 mi Calm Calm - N/A   Clear
12:53 PM 82.9 °F 91.8 °F 77.0 °F 82% 30.02 in 9.0 mi Calm Calm - N/A   Clear
1:53 PM 87.1 °F 98.8 °F 77.0 °F 72% 30.00 in 10.0 mi SSW 5.8 mph - N/A   Clear
2:53 PM 87.1 °F 98.8 °F 77.0 °F 72% 29.99 in 10.0 mi SW 6.9 mph - N/A   Partly Cloudy
3:53 PM 89.1 °F 101.4 °F 77.0 °F 67% 29.96 in 10.0 mi SW 8.1 mph - N/A   Clear
4:53 PM 90.0 °F 101.3 °F 75.9 °F 63% 29.95 in 10.0 mi SSW 10.4 mph - N/A   Scattered Clouds
5:53 PM 88.0 °F 97.5 °F 75.0 °F 65% 29.94 in 10.0 mi South 9.2 mph - N/A   Clear
6:53 PM 86.0 °F 96.0 °F 75.9 °F 72% 29.93 in 10.0 mi SSW 8.1 mph - N/A   Clear
7:53 PM 84.0 °F 92.6 °F 75.9 °F 76% 29.93 in 10.0 mi SSW 5.8 mph - N/A   Clear
8:53 PM 81.0 °F 87.3 °F 75.9 °F 85% 29.93 in 10.0 mi SSW 4.6 mph - N/A   Clear
9:53 PM 81.0 °F 87.9 °F 77.0 °F 88% 29.94 in 10.0 mi Calm Calm - N/A   Partly Cloudy
10:53 PM 80.1 °F 85.8 °F 77.0 °F 90% 29.95 in 10.0 mi South 3.5 mph - N/A   Clear
11:53 PM 79.0 °F - 75.9 °F 90% 29.96 in 9.0 mi South 4.6 mph - N/A   Scattered Clouds